Hourly Data Report for October 19, 2015

All times are specified in Local Standard Time (LST). Add 1 hour to adjust for Daylight Saving Time where and when it is observed.

HALL BEACH A
NUNAVUT

68°46'33.000" N
81°14'33.000" W
9.10 m
2402354
71293
YUX

Download Data

Hourly Data (October 2015)
Hourly Data Report for October 19, 2015
Temp Definition
°C
Dew Point Temp Definition
°C
Rel Hum Definition
%
Wind Dir Definition
10's deg

Wind Spd Definition
km/h
Visibility Definition
km
Stn Press Definition
kPa
Hmdx Definition


Wind Chill Definition


Weather Definition


TIME
00:00 Legend Double Dagger -3.2 -3.6 97 1 8 0.8 100.70   -6 Moderate Snow
01:00 Legend Double Dagger -2.8 -5.5 82 4 18 16.1 100.69   -8 Snow
02:00 Legend Double Dagger -3.2 -5.7 83 4 21 16.1 100.69   -9 Snow
03:00 Legend Double Dagger -4.2 -7.2 80 3 22 16.1 100.69   -11 LegendNANA
04:00 Legend Double Dagger -4.3 -7.7 77 3 24 16.1 100.70   -11 LegendNANA
05:00 Legend Double Dagger -4.7 -8.0 78 2 22 16.1 100.68   -12 LegendNANA
06:00 Legend Double Dagger -4.7 -8.3 76 2 26 16.1 100.69   -12 LegendNANA
07:00 Legend Double Dagger -4.7 -7.7 80 36 22 16.1 100.68   -12 Snow
08:00 Legend Double Dagger -4.3 -6.1 87 36 30 3.6 100.63   -12 Snow
09:00 Legend Double Dagger -3.6 -6.5 80 3 28 4.0 100.59   -11 Snow
10:00 Legend Double Dagger -4.1 -6.1 86 7 35 1.2 100.57   -12 Snow
11:00 Legend Double Dagger -3.7 -6.7 80 7 32 3.6 100.59   -12 Snow
12:00 Legend Double Dagger -3.5 -7.7 73 7 28 9.7 100.64   -11 Snow
13:00 Legend Double Dagger -3.6 -5.4 88 4 35 3.2 100.69   -12 Snow
14:00 Legend Double Dagger -3.6 -4.9 91 4 35 4.0 100.71   -12 Snow
15:00 Legend Double Dagger -3.2 -4.9 88 2 21 16.1 100.74   -9 Snow
16:00 Legend Double Dagger -3.4 -8.0 70 10 17 16.1 100.79   -9 LegendNANA
17:00 Legend Double Dagger -3.4 -5.2 87 11 30 11.3 100.83   -11 Snow
18:00 Legend Double Dagger -3.5 -8.9 66 8 28 16.1 100.89   -11 LegendNANA
19:00 Legend Double Dagger -3.7 -7.6 75 7 26 16.1 100.94   -11 Snow
20:00 Legend Double Dagger -4.0 -6.5 83 8 30 16.1 100.96   -12 LegendNANA
21:00 Legend Double Dagger -3.8 -9.1 67 6 30 16.1 100.99   -11 LegendNANA
22:00 Legend Double Dagger -3.9 -10.5 60 7 18 16.1 101.02   -10 LegendNANA
23:00 Legend Double Dagger -3.9 -6.2 84 4 30 4.8 101.03   -12 Snow

Notes on Data Quality.

Legend

  • E = Estimated
  • M = Missing
  • NA = Not Available
  • ‡ = Partner data that is not subject to review by the National Climate Archives
Date modified: